When you browse on this site, cookies collect data to enhance your experience and personalize the content and advertising you see.
Visit our Privacy Policy to learn more. By continuing to use the site, you agree to this use of cookies and data.
  • In Czech Republic
  • List of Countries
  • For 7 days
  • Water Temperature
  • Weather Map
  • Weather Widgets
  • user-avatar
    Login

    Hourly Weather Bolshoe Ragozino

    Today, 20 January, Monday

    Time Temperature Precipitation Wind Pressure Humidity
    00:00 -1°C° 0 mm 6 mps 750 mmHg 93%
    01:00 -1°C° 0 mm 6 mps 750 mmHg 91%
    02:00 -1°C° 0 mm 6 mps 750 mmHg 86%
    03:00 -1°C° 0.1 mm 6 mps 750 mmHg 89%
    04:00 -2°C° 0.1 mm 6 mps 750 mmHg 91%
    05:00 -2°C° 0.1 mm 6 mps 750 mmHg 94%
    06:00 -1°C° 0.2 mm 5 mps 750 mmHg 95%
    07:00 -1°C° 0.2 mm 5 mps 750 mmHg 96%
    08:00 -1°C° 0.2 mm 5 mps 750 mmHg 97%
    09:00 -1°C° 0.3 mm 5 mps 750 mmHg 96%
    10:00 -1°C° 0.3 mm 5 mps 750 mmHg 96%
    11:00 -1°C° 0.3 mm 4 mps 750 mmHg 95%
    12:00 -1°C° 0.2 mm 5 mps 750 mmHg 95%
    13:00 -1°C° 0.2 mm 5 mps 750 mmHg 95%
    14:00 -1°C° 0.2 mm 5 mps 750 mmHg 95%
    15:00 -1°C° 0.1 mm 5 mps 750 mmHg 95%
    16:00 -1°C° 0.1 mm 5 mps 749 mmHg 95%
    17:00 -1°C° 0.1 mm 5 mps 749 mmHg 95%
    18:00 -1°C° 0 mm 5 mps 749 mmHg 95%
    19:00 -1°C° 0 mm 5 mps 748 mmHg 95%
    20:00 -1°C° 0 mm 5 mps 748 mmHg 95%
    21:00 -1°C° 0 mm 5 mps 747 mmHg 92%
    22:00 -2°C° 0 mm 5 mps 747 mmHg 89%
    23:00 -2°C° 0 mm 5 mps 746 mmHg 86%

    Tomorrow, 21 January, Tuesday

    Time Temperature Precipitation Wind Pressure Humidity
    00:00 -2°C° 0.1 mm 5 mps 745 mmHg 88%
    01:00 -3°C° 0.1 mm 6 mps 745 mmHg 90%
    02:00 -3°C° 0.1 mm 6 mps 744 mmHg 93%
    03:00 -2°C° 0.6 mm 6 mps 743 mmHg 94%
    04:00 -2°C° 0.6 mm 6 mps 742 mmHg 95%
    05:00 -1°C° 0.6 mm 6 mps 740 mmHg 96%
    06:00 -1°C° 0.6 mm 7 mps 740 mmHg 94%
    07:00 0°C° 0.6 mm 7 mps 739 mmHg 91%
    08:00 0°C° 0.6 mm 8 mps 738 mmHg 89%
    09:00 +2°C° 0 mm 7 mps 737 mmHg 89%
    10:00 +2°C° 0 mm 7 mps 737 mmHg 89%
    11:00 +2°C° 0 mm 6 mps 736 mmHg 89%
    12:00 +2°C° 0.1 mm 6 mps 736 mmHg 89%
    13:00 +2°C° 0.1 mm 6 mps 736 mmHg 89%
    14:00 +2°C° 0.1 mm 6 mps 735 mmHg 88%
    15:00 +2°C° 0.5 mm 5 mps 734 mmHg 91%
    16:00 +2°C° 0.5 mm 5 mps 733 mmHg 93%
    17:00 +2°C° 0.5 mm 5 mps 733 mmHg 95%
    18:00 +1°C° 0.4 mm 5 mps 732 mmHg 93%
    19:00 +1°C° 0.4 mm 6 mps 732 mmHg 91%
    20:00 +1°C° 0.4 mm 6 mps 731 mmHg 88%
    21:00 -1°C° 0.1 mm 6 mps 732 mmHg 84%
    22:00 -2°C° 0.1 mm 7 mps 732 mmHg 79%
    23:00 -3°C° 0.1 mm 7 mps 732 mmHg 74%

    Day after tomorrow, 22 January, Wednesday

    Time Temperature Precipitation Wind Pressure Humidity
    00:00 -3°C° 0 mm 7 mps 732 mmHg 75%
    01:00 -4°C° 0 mm 6 mps 733 mmHg 76%
    02:00 -4°C° 0 mm 6 mps 733 mmHg 76%
    03:00 -4°C° 0 mm 6 mps 732 mmHg 76%
    04:00 -4°C° 0 mm 6 mps 731 mmHg 77%
    05:00 -4°C° 0 mm 6 mps 730 mmHg 77%
    06:00 -4°C° 0.1 mm 6 mps 730 mmHg 80%
    07:00 -4°C° 0.1 mm 6 mps 730 mmHg 83%
    08:00 -4°C° 0.1 mm 6 mps 729 mmHg 86%
    09:00 -4°C° 0.4 mm 6 mps 729 mmHg 81%
    10:00 -4°C° 0.4 mm 6 mps 729 mmHg 76%
    11:00 -4°C° 0.4 mm 7 mps 729 mmHg 70%
    12:00 -4°C° 0 mm 7 mps 729 mmHg 71%
    13:00 -4°C° 0 mm 7 mps 728 mmHg 71%
    14:00 -4°C° 0 mm 7 mps 728 mmHg 71%
    15:00 -4°C° 0 mm 7 mps 728 mmHg 75%
    16:00 -6°C° 0 mm 7 mps 728 mmHg 79%
    17:00 -6°C° 0 mm 7 mps 729 mmHg 82%
    18:00 -6°C° 0.1 mm 7 mps 729 mmHg 81%
    19:00 -6°C° 0.1 mm 7 mps 730 mmHg 80%
    20:00 -6°C° 0.1 mm 7 mps 730 mmHg 78%
    21:00 -7°C° 0.1 mm 7 mps 731 mmHg 80%
    22:00 -8°C° 0.1 mm 7 mps 732 mmHg 82%
    23:00 -8°C° 0.1 mm 7 mps 732 mmHg 83%

    23 January, Thursday

    Time Temperature Precipitation Wind Pressure Humidity
    00:00 -9°C° 0.1 mm 7 mps 733 mmHg 80%
    01:00 -9°C° 0.1 mm 7 mps 734 mmHg 77%
    02:00 -11°C° 0.1 mm 7 mps 735 mmHg 74%
    03:00 -11°C° 0 mm 7 mps 735 mmHg 73%
    04:00 -11°C° 0 mm 7 mps 736 mmHg 72%
    05:00 -12°C° 0 mm 7 mps 736 mmHg 71%
    06:00 -12°C° 0 mm 7 mps 737 mmHg 70%
    07:00 -12°C° 0 mm 7 mps 737 mmHg 68%
    08:00 -12°C° 0 mm 7 mps 738 mmHg 66%
    09:00 -12°C° 0 mm 7 mps 738 mmHg 65%
    10:00 -12°C° 0 mm 7 mps 739 mmHg 64%
    11:00 -12°C° 0 mm 7 mps 740 mmHg 63%
    12:00 -11°C° 0 mm 6 mps 740 mmHg 64%
    13:00 -11°C° 0 mm 6 mps 741 mmHg 65%
    14:00 -11°C° 0 mm 6 mps 742 mmHg 66%
    15:00 -11°C° 0 mm 5 mps 742 mmHg 68%
    16:00 -11°C° 0 mm 5 mps 743 mmHg 70%
    17:00 -12°C° 0 mm 5 mps 743 mmHg 71%
    18:00 -11°C° 0 mm 4 mps 743 mmHg 73%
    19:00 -11°C° 0 mm 4 mps 744 mmHg 74%
    20:00 -10°C° 0 mm 3 mps 744 mmHg 75%
    21:00 -10°C° 0 mm 3 mps 744 mmHg 75%
    22:00 -9°C° 0 mm 3 mps 744 mmHg 76%
    23:00 -10°C° 0 mm 4 mps 744 mmHg 76%

    24 January, Friday

    Time Temperature Precipitation Wind Pressure Humidity
    00:00 -10°C° 0 mm 4 mps 743 mmHg 75%
    01:00 -9°C° 0 mm 3 mps 743 mmHg 73%
    02:00 -9°C° 0 mm 3 mps 742 mmHg 72%
    03:00 -9°C° 0.1 mm 4 mps 741 mmHg 78%
    04:00 -9°C° 0.1 mm 4 mps 741 mmHg 84%
    05:00 -10°C° 0.1 mm 5 mps 740 mmHg 91%
    06:00 -8°C° 0.2 mm 5 mps 739 mmHg 92%
    07:00 -7°C° 0.2 mm 5 mps 739 mmHg 93%
    08:00 -6°C° 0.2 mm 5 mps 738 mmHg 95%
    09:00 -6°C° 0.3 mm 5 mps 737 mmHg 95%
    10:00 -5°C° 0.3 mm 5 mps 737 mmHg 95%
    11:00 -4°C° 0.3 mm 5 mps 736 mmHg 95%
    12:00 -2°C° 0.1 mm 5 mps 736 mmHg 95%
    13:00 -1°C° 0.1 mm 5 mps 735 mmHg 95%
    14:00 0°C° 0.1 mm 5 mps 735 mmHg 95%
    15:00 0°C° 0 mm 5 mps 735 mmHg 95%
    16:00 0°C° 0 mm 5 mps 735 mmHg 96%
    17:00 0°C° 0 mm 5 mps 734 mmHg 96%
    18:00 0°C° 0.4 mm 5 mps 734 mmHg 96%
    19:00 0°C° 0.4 mm 5 mps 734 mmHg 97%
    20:00 0°C° 0.4 mm 4 mps 734 mmHg 97%
    21:00 0°C° 0.2 mm 4 mps 734 mmHg 97%
    22:00 0°C° 0.2 mm 4 mps 734 mmHg 97%
    23:00 0°C° 0.2 mm 4 mps 734 mmHg 97%

    25 January, Saturday

    Time Temperature Precipitation Wind Pressure Humidity
    00:00 +1°C° 0.2 mm 3 mps 734 mmHg 97%
    01:00 0°C° 0.2 mm 3 mps 734 mmHg 97%
    02:00 0°C° 0.2 mm 3 mps 735 mmHg 96%
    03:00 0°C° 0 mm 3 mps 735 mmHg 96%
    04:00 -1°C° 0 mm 2 mps 735 mmHg 96%
    05:00 -1°C° 0 mm 2 mps 735 mmHg 96%
    06:00 -2°C° 0 mm 2 mps 735 mmHg 96%
    07:00 -2°C° 0 mm 2 mps 735 mmHg 96%
    08:00 -2°C° 0 mm 2 mps 736 mmHg 96%
    09:00 -1°C° 0 mm 3 mps 736 mmHg 95%
    10:00 -1°C° 0 mm 3 mps 736 mmHg 94%
    11:00 -1°C° 0 mm 4 mps 737 mmHg 93%
    12:00 -1°C° 0 mm 4 mps 737 mmHg 93%
    13:00 -1°C° 0 mm 5 mps 737 mmHg 93%
    14:00 -1°C° 0 mm 5 mps 737 mmHg 93%
    15:00 -1°C° 0 mm 5 mps 737 mmHg 91%
    16:00 -1°C° 0 mm 5 mps 738 mmHg 90%
    17:00 -2°C° 0 mm 4 mps 738 mmHg 88%
    18:00 -2°C° 0 mm 4 mps 738 mmHg 88%
    19:00 -2°C° 0 mm 4 mps 739 mmHg 89%
    20:00 -3°C° 0 mm 4 mps 739 mmHg 89%
    21:00 -3°C° 0 mm 4 mps 740 mmHg 90%
    22:00 -3°C° 0 mm 4 mps 740 mmHg 91%
    23:00 -4°C° 0 mm 4 mps 740 mmHg 92%
    Show more